Location: Cheching
(60.0667°N, 164.2167°W)
Time: 12:39:12
(UTC+00:00)

FENGYUN 1C DEB - Pass Details

Date: 04 October 2021
Orbit: 727 x 819 km, 99.4° (Epoch: 17 October)

Event Time Altitude Azimuth Distance (km) Brightness Sun altitude
Exits shadow 14:09:34 22° 306° (NW) 1,594 ? -22.5°
Drops below altitude 10° 14:11:53 10° 327° (NNW) 2,294 ? -22.2°
Sets 14:14:29 0° 338° (NNW) 3,239 ? -21.9°
